Location: Samoth
(37.3328°N, 88.7876°W)
Time: 11:44:31
(UTC+00:00)

Cosmos 1302 Rocket - Pass Details

Date: 29 October 2020
Orbit: 756 x 776 km, 74.0° (Epoch: 04 December)

Event Time Altitude Azimuth Distance (km) Brightness Sun altitude
Rises 23:33:30 0° 203° (SSW) 3,219 7.8 -7.3°
Reaches altitude 10° 23:35:52 10° 206° (SSW) 2,300 7.0 -7.8°
Maximum altitude 23:41:04 68° 289° (WNW) 829 4.4 -8.8°
Drops below altitude 10° 23:46:20 10° 13° (NNE) 2,326 6.3 -9.8°
Sets 23:48:45 0° 16° (NNE) 3,259 7.0 -10.3°
